Flag for Austria Weather past 2 weeks in St. Pölten, Lower Austria, Austria

Now
66 °F

Partly sunny.


Feels Like: 66 °F
Forecast: 55 / 83 °F
Wind: 8 mph from West

Location: Tulln Airport

Current Time: Aug 2, 2015 at 3:26:43 PM

Latest Report: Aug 2, 2015 at 2:50 PM


Visibility: 7 mi

Pressure: 30.15 "Hg

Humidity: 94%

Dew point: 64 °F

Location of St. PöltenLocation

Historic Weather in St. Pölten — Graph

°F

St. Pölten temperature yesterday

Maximum temperature yesterday: 82 °F (at 2:50 PM)
Minimum temperature yesterday: 57 °F (at 5:50 AM)
Average temperature yesterday: 75 °F

Past Weeks' High & Low Weather Summary

 TemperatureHumidityPressure
High100 °F (Jul 22, 2:50 PM)100% (Jul 29, 6:50 AM)30.12 "Hg (Jul 29, 6:50 AM)
Low57 °F (Jul 28, 5:50 AM)23% (Jul 18, 3:50 PM)29.71 "Hg (Jul 25, 5:50 AM)
Average76 °F57%29.91 "Hg
* Reported Jul 18 1:50 PM — Aug 2 1:50 PM, St. Pölten, Weather by CustomWeather, © 2015

Note: Actual official high and low records may vary slightly from our data, if they occured in-between our weather recording intervals... More about our weather records

Advertising

St. Pölten weather history for previous 24 hours

 ConditionsComfort  
Time TempWeatherWind HumidityBarometerVisibility
1:50 PM
Sun, Aug 2
66 °FRain showers. Broken clouds.6 mph94%30.12 "Hg7 mi
12:50 PM72 °FBroken clouds.7 mph69%30.12 "Hg12 mi
11:50 AM70 °FBroken clouds.5 mph78%30.12 "Hg11 mi
10:50 AM66 °FLight rain. Partly sunny.6 mph83%30.12 "Hg9 mi
9:50 AM68 °FBroken clouds.7 mph78%30.09 "Hg12 mi
8:50 AM64 °FPartly sunny.6 mph88%30.07 "Hg16 mi
7:50 AM66 °FLight rain. Partly sunny.8 mph78%30.07 "Hg12 mi
6:50 AM66 °FLight rain. Broken clouds.8 mph78%30.07 "Hg12 mi
5:50 AM68 °FPassing clouds.5 mph69%30.04 "Hg12 mi
10:50 PM
Sat, Aug 1
73 °FPartly cloudy.8 mph53%29.98 "Hg16 mi
9:50 PM73 °FPartly cloudy.15 mph50%29.98 "Hg16 mi
8:50 PM75 °FBroken clouds.9 mph47%29.95 "Hg19 mi
7:50 PM77 °FPartly sunny.8 mph42%29.95 "Hg31 mi
6:50 PM79 °FPartly sunny.15 mph37%29.95 "Hg37 mi
5:50 PM81 °FPartly sunny.16 mph34%29.95 "Hg37 mi
4:50 PM82 °FPartly sunny.20 mph32%29.95 "Hg37 mi
3:50 PM82 °FPartly sunny.20 mph32%29.95 "Hg37 mi
Weather by CustomWeather, © 2015

See weather overviewHow to use our weather pages